EW3230 Weather Reports


time (UTC)temp
F
wind
direction
speed
knots
gust
knots
rain 1hr
in
rain 24hr
in
rain mn
in
humidity
%
barometer
mb
20260901153753 72 166 0.0 0.9 0.00 0.01 0.01 74 1017.8
20260901153253 72 135 0.0 0.9 0.00 0.01 0.01 74 1017.8
20260901151805 72 135 0.0 0.9 0.00 0.01 0.01 72 1017.8
20260901150752 71 155 0.0 0.9 0.01 0.01 0.01 72 1017.8
20260901145752 71 134 0.0 0.9 0.01 0.01 0.01 71 1018.0
20260901144755 71 67 0.0 0.0 0.01 0.01 0.01 69 1018.3
20260901144749 71 97 0.0 0.0 0.01 0.01 0.01 71 1018.3
20260901142749 70 67 0.0 0.9 0.01 0.01 0.01 67 1018.2
20260901141750 70 43 0.0 1.7 0.01 0.01 0.01 67 1018.3
20260901140747 70 36 0.0 0.0 0.00 0.00 0.00 65 1018.3
20260901135745 70 36 0.0 0.0 0.00 0.00 0.00 66 1018.0
20260901134747 69 35 0.0 0.0 0.00 0.00 0.00 67 1018.1
20260901133746 69 36 0.0 0.9 0.00 0.00 0.00 68 1018.1
20260901132745 69 30 0.0 0.9 0.00 0.00 0.00 68 1018.1
20260901131743 69 13 0.0 0.0 0.00 0.00 0.00 68 1018.1
20260901130744 69 13 0.0 0.9 0.00 0.00 0.00 69 1018.0
20260901125744 69 49 0.0 0.9 0.00 0.00 0.00 68 1018.1
20260901124744 69 41 0.0 0.9 0.00 0.00 0.00 69 1018.1
20260901124245 69 167 0.0 0.0 0.00 0.00 0.00 68 1018.1
20260901122742 69 167 0.0 0.0 0.00 0.00 0.00 67 1018.0
20260901121741 68 166 0.0 0.0 0.00 0.00 0.00 67 1017.9
20260901120743 68 166 0.0 0.0 0.00 0.00 0.00 67 1017.8
20260901115738 68 166 0.0 0.0 0.00 0.00 0.00 66 1018.0
20260901114737 67 166 0.0 0.0 0.00 0.00 0.00 66 1018.1
20260901113737 67 166 0.0 0.0 0.00 0.00 0.00 66 1018.0
20260901112738 67 167 0.0 0.0 0.00 0.00 0.00 66 1018.0
20260901111739 66 166 0.0 0.0 0.00 0.00 0.00 65 1017.9
20260901110735 66 166 0.0 0.0 0.00 0.00 0.00 65 1017.9
20260901110237 66 167 0.0 0.0 0.00 0.00 0.00 65 1017.7
20260901104736 66 166 0.0 0.9 0.00 0.00 0.00 65 1017.6
20260901104238 66 172 0.0 0.0 0.00 0.00 0.00 65 1017.6
20260901102733 65 172 0.0 0.0 0.00 0.00 0.00 65 1017.5
20260901102231 65 172 0.0 0.0 0.00 0.00 0.00 65 1017.4
20260901095725 65 172 0.0 0.0 0.00 0.00 0.00 66 1017.3
20260901094727 65 172 0.0 0.0 0.00 0.00 0.00 66 1017.3
20260901093740 65 172 0.0 0.0 0.00 0.00 0.00 67 1017.3
20260901092727 66 172 0.0 0.0 0.00 0.00 0.00 68 1017.4
20260901091725 66 172 0.0 0.0 0.00 0.00 0.00 68 1017.3
20260901090725 66 172 0.0 0.0 0.00 0.00 0.00 68 1017.4
20260901085724 66 172 0.0 0.0 0.00 0.00 0.00 68 1017.3
20260901084719 66 172 0.0 0.0 0.00 0.00 0.00 68 1017.7
20260901084222 66 172 0.0 0.0 0.00 0.00 0.00 69 1017.9
20260901082719 66 172 0.0 0.0 0.00 0.00 0.00 69 1018.1
20260901080719 66 172 0.0 0.0 0.00 0.00 0.00 69 1018.0
20260901075721 66 172 0.0 0.0 0.00 0.00 0.00 70 1017.9
20260901074721 66 172 0.0 0.0 0.00 0.00 0.00 70 1018.0
20260901073719 66 172 0.0 0.0 0.00 0.00 0.00 70 1018.1
20260901072719 65 172 0.0 0.0 0.00 0.00 0.00 70 1018.2
20260901071717 65 172 0.0 0.0 0.00 0.00 0.00 70 1018.1
20260901070716 65 172 0.0 0.0 0.00 0.00 0.00 70 1018.2
20260901065712 65 172 0.0 0.0 0.00 0.00 0.00 70 1018.2
20260901064728 65 172 0.0 0.0 0.00 0.00 0.00 70 1018.4
20260901063713 65 172 0.0 0.0 0.00 0.00 0.00 69 1018.6
20260901062714 65 172 0.0 0.0 0.00 0.00 0.00 69 1018.5
20260901061713 65 172 0.0 0.0 0.00 0.00 0.00 69 1018.4
20260901061215 65 172 0.0 0.0 0.00 0.00 0.00 69 1018.4
20260901055713 65 172 0.0 0.0 0.00 0.00 0.00 70 1018.5
20260901054707 65 172 0.0 0.0 0.00 0.00 0.00 70 1018.6
20260901053707 65 172 0.0 0.9 0.00 0.00 0.00 70 1018.7
20260901052708 65 172 0.0 0.0 0.00 0.00 0.00 70 1018.6
20260901052208 65 172 0.0 0.0 0.00 0.00 0.00 70 1018.5
20260901050708 65 172 0.0 0.0 0.00 0.01 0.00 70 1018.6
20260901045708 65 172 0.0 0.0 0.00 0.03 0.00 69 1018.6
20260901044706 65 172 0.0 0.0 0.00 0.03 0.00 69 1018.6
20260901043705 65 172 0.0 0.0 0.00 0.03 0.00 70 1018.9
20260901042704 65 172 0.0 0.0 0.00 0.03 0.00 71 1019.0
20260901042205 66 172 0.0 0.0 0.00 0.03 0.00 72 1019.0
20260901040703 66 172 0.0 0.0 0.00 0.03 0.00 72 1019.0
20260901035702 66 172 0.0 0.0 0.00 0.03 0.03 72 1019.0
20260901034701 67 172 0.0 0.0 0.00 0.04 0.03 71 1019.0
20260901033701 67 172 0.0 0.0 0.00 0.05 0.03 71 1019.0
20260901032704 67 172 0.0 0.0 0.00 0.10 0.03 72 1019.1
20260901031702 67 172 0.0 0.0 0.00 0.10 0.03 72 1019.1
20260901030702 67 172 0.0 0.0 0.00 0.11 0.03 72 1019.0
20260901025704 67 172 0.0 0.0 0.00 0.12 0.03 72 1019.1
20260901025205 67 172 0.0 0.9 0.00 0.13 0.03 72 1019.1
20260901023702 67 167 0.0 0.0 0.00 0.13 0.03 72 1019.2
20260901022703 67 167 0.0 0.0 0.00 0.13 0.03 73 1019.3
20260901021702 67 167 0.0 0.0 0.00 0.13 0.03 74 1019.4
20260901020704 68 167 0.0 0.0 0.00 0.14 0.03 73 1019.3
20260901015704 68 167 0.0 0.0 0.00 0.14 0.03 74 1019.4
20260901014701 68 167 0.0 0.0 0.00 0.14 0.03 74 1019.2
20260901013703 68 167 0.0 0.0 0.00 0.14 0.03 73 1019.2
20260901013157 68 167 0.0 0.0 0.00 0.14 0.03 73 1019.3
20260901012157 68 167 0.0 0.9 0.00 0.14 0.03 73 1019.3
20260901011156 69 155 0.0 0.9 0.00 0.14 0.03 73 1019.2
20260901005656 69 155 0.0 0.0 0.00 0.14 0.03 73 1019.3
20260901004657 69 155 0.0 0.0 0.00 0.14 0.03 74 1019.2
20260901003656 69 155 0.0 0.9 0.00 0.14 0.03 74 1019.2
20260901002656 69 155 0.0 0.9 0.00 0.14 0.03 75 1019.2
20260901001655 69 155 0.0 0.0 0.00 0.14 0.03 75 1019.4
20260901001157 69 155 0.0 0.0 0.00 0.14 0.03 75 1019.4
20260831235651 69 155 0.0 0.0 0.00 0.14 0.03 75 1019.3
20260831234649 69 155 0.0 0.0 0.00 0.14 0.03 75 1019.4
20260831233702 69 155 0.0 0.0 0.00 0.14 0.03 75 1019.2
20260831233651 69 155 0.0 0.9 0.00 0.14 0.03 75 1019.3
20260831231650 70 155 0.0 0.9 0.00 0.14 0.03 75 1019.2
20260831230651 70 155 0.0 0.9 0.00 0.14 0.03 75 1019.3
20260831225649 70 155 0.0 0.9 0.00 0.14 0.03 75 1019.3
20260831224651 71 160 0.0 0.9 0.00 0.14 0.03 75 1019.3
20260831223650 71 150 0.0 0.9 0.00 0.14 0.03 75 1019.4
20260831222646 71 160 0.0 0.9 0.00 0.14 0.03 75 1019.4
20260831221644 72 163 0.0 0.9 0.00 0.14 0.03 74 1019.4
20260831220643 72 163 0.0 0.9 0.00 0.14 0.03 74 1019.5
20260831215644 73 166 0.0 0.9 0.00 0.14 0.03 73 1019.4
20260831214645 73 181 0.0 0.9 0.00 0.14 0.03 69 1019.4
20260831213644 74 195 0.0 0.9 0.00 0.14 0.03 67 1019.5
20260831212646 74 195 0.0 0.9 0.00 0.14 0.03 67 1019.4
20260831211643 74 162 0.0 0.9 0.00 0.14 0.03 66 1019.4
20260831210643 74 129 0.0 0.9 0.00 0.14 0.03 65 1019.3
20260831205638 76 136 0.0 0.9 0.00 0.14 0.03 62 1019.3
20260831204639 76 133 0.0 0.9 0.00 0.14 0.03 62 1019.3
20260831203637 75 136 0.0 0.9 0.00 0.14 0.03 61 1019.4
20260831202640 75 128 0.0 0.9 0.00 0.14 0.03 62 1019.4
20260831201638 76 112 0.0 0.9 0.00 0.14 0.03 62 1019.2
20260831200637 76 134 0.0 0.9 0.00 0.14 0.03 61 1019.2
20260831200140 76 183 0.0 4.3 0.00 0.14 0.03 61 1019.5
20260831195754 75 33 0.0 4.3 0.00 0.14 0.03 65 1019.4
20260831193638 74 67 0.9 4.3 0.00 0.14 0.03 66 1019.5
20260831192632 74 103 0.0 0.9 0.00 0.14 0.03 64 1019.5
20260831191631 75 113 0.0 3.5 0.00 0.14 0.03 65 1019.8
20260831190632 74 33 0.9 4.3 0.00 0.14 0.03 64 1019.8
20260831185633 75 108 0.0 0.9 0.00 0.14 0.03 64 1019.9
20260831184633 74 219 0.9 4.3 0.00 0.14 0.03 66 1020.1
20260831184136 74 70 0.0 4.3 0.00 0.14 0.03 66 1020.0
20260831182633 74 134 0.9 4.3 0.00 0.14 0.03 67 1019.9
20260831181634 74 57 0.9 3.5 0.00 0.14 0.03 67 1020.0
20260831180630 74 358 0.0 2.6 0.00 0.14 0.03 68 1020.2
20260831180129 74 71 0.9 4.3 0.00 0.14 0.03 67 1020.3
20260831174627 74 108 0.0 2.6 0.00 0.14 0.03 67 1020.4
20260831173628 74 102 0.9 4.3 0.00 0.14 0.03 66 1020.3
20260831172627 74 79 0.0 2.6 0.00 0.14 0.03 65 1020.3
20260831171626 74 79 0.9 5.2 0.00 0.14 0.03 64 1020.3
20260831171128 74 238 0.9 4.3 0.00 0.14 0.03 62 1020.4
20260831165627 74 92 0.9 6.1 0.00 0.14 0.03 64 1020.4
20260831164625 74 65 0.0 5.2 0.00 0.14 0.03 64 1020.6
20260831163626 74 31 0.0 2.6 0.00 0.14 0.03 65 1020.6
20260831162623 74 242 0.9 4.3 0.00 0.14 0.03 66 1020.6
20260831161625 74 78 0.9 5.2 0.00 0.14 0.03 65 1020.6
20260831160624 73 330 0.9 4.3 0.00 0.14 0.03 66 1020.6
20260831160125 73 79 0.9 4.3 0.00 0.14 0.03 67 1020.8